[[{"header":{"parameterUnit":"m.s-1","parameterCategory":1,"la1":30.2991,"la2":30.254,"lo1":-89.0895,"lo2":-89.0444,"dy":0.0017,"dx":0.0017,"nx":28,"ny":28,"refTime":"2025-12-21T09:00:00:Z","depth":0,"parameterNumber":2,"parameterNumberName":"U-component_of_WINDS"},"data":[0,0,0,0,0,0,0,0,0,0,0,0,0,0,0,0,0,0,0,0,0,0,0,0,0,0,0,0,0,0,0,0,0,0,0,0,0,0,0,0,0,0,0,0,0,0,0,0,0,0,0,0,0,0,0,0,0,0,-2.3139,-2.3139,0,-2.3149,-2.3149,-2.3149,-2.3082,-2.308,-2.3078,-2.3076,-2.3088,-2.309,-2.3092,0,0,0,0,0,0,0,0,0,0,0,0,0,-2.3062,-2.3064,-2.3139,-2.3139,-2.3139,-2.3149,-2.3149,-2.3149,-2.3082,-2.308,-2.3077,-2.3075,-2.3087,-2.309,-2.3093,0,0,0,0,0,0,0,0,0,0,0,0,0,-2.3087,-2.3065,-2.3139,-2.3107,-2.3104,-2.3149,-2.3149,-2.3149,-2.3082,-2.3079,-2.3077,-2.3074,-2.3087,-2.309,-2.3093,-2.317,0,0,-2.3103,-2.3104,0,0,0,0,0,0,0,0,-2.3085,-2.3089,-2.3111,-2.3109,-2.3106,-2.3111,-2.3127,-2.3156,-2.3083,-2.3091,-2.3076,-2.3072,-2.3098,-2.31,-2.3109,-2.3171,-2.3171,-2.3103,-2.3105,-2.3106,-2.3107,0,0,0,0,0,0,0,-2.3084,-2.3089,-2.3143,-2.3112,-2.3108,-2.3092,-2.3092,-2.3132,-2.3111,-2.309,-2.3085,-2.3087,-2.3096,-2.3106,-2.3108,-2.3171,-2.3103,-2.3106,-2.3108,-2.3109,-2.3297,-2.33,0,0,0,0,0,0,-2.3086,-2.3088,-2.3143,-2.3143,-2.3088,-2.3096,-2.3096,-2.3112,-2.311,-2.3107,-2.3089,-2.3084,-2.3102,-2.3105,-2.3109,-2.3198,-2.3106,-2.3109,-2.3111,-2.3294,-2.3297,-2.3301,0,0,0,0,0,0,-2.3085,-2.3092,-2.3142,-2.3114,-2.3119,-2.31,-2.3119,-2.3114,-2.3123,-2.3109,-2.3105,-2.3103,-2.31,-2.3104,-2.3155,-2.3197,-2.3111,-2.3113,-2.329,-2.3295,-2.3299,-2.3378,0,0,0,0,0,0,-2.3083,-2.3092,-2.312,-2.3115,-2.3121,-2.3188,-2.3122,-2.3116,-2.3129,-2.3121,-2.3121,-2.3118,-2.3098,-2.3151,-2.3158,-2.32,-2.3116,-2.3286,-2.3292,-2.3298,-2.3371,-2.3385,-2.3396,0,0,0,0,0,-2.308,-2.3143,-2.3122,-2.3129,-2.3156,-2.3191,-2.3194,-2.3168,-2.3132,-2.3161,-2.3152,-2.3118,-2.3192,-2.3156,-2.3164,-2.3208,-2.3283,-2.3291,-2.3297,-2.3366,-2.3382,-2.3396,0,0,0,0,0,0,-2.3154,-2.3141,-2.3118,-2.3181,-2.3187,-2.3179,-2.3215,-2.3187,-2.3204,-2.3196,-2.3165,-2.3165,-2.3221,-2.322,-2.3181,-2.3282,-2.3231,-2.324,-2.3281,-2.3296,-2.3308,-2.3307,-2.3119,0,0,0,0,0,-2.3177,-2.3205,-2.3193,-2.325,-2.3254,-2.3234,-2.3248,-2.3228,-2.3233,-2.3236,-2.3231,-2.3238,-2.3263,-2.3279,-2.3301,-2.3371,-2.337,-2.3405,-2.3418,-2.3428,-2.3435,-2.3471,-2.3487,-2.3324,-2.3324,-2.3323,0,0,-2.3226,-2.3222,-2.3242,-2.3264,-2.3267,-2.3297,-2.3237,-2.3272,-2.3294,-2.3241,-2.3288,-2.3285,-2.3291,-2.3352,-2.3378,-2.3352,-2.348,-2.3437,-2.3445,-2.3447,-2.348,-2.3496,-2.3509,-2.3328,-2.3327,-2.3327,0,0,-2.3329,-2.333,-2.3376,-2.338,-2.3385,-2.3371,-2.3383,-2.3379,-2.3374,-2.3421,-2.3382,-2.3409,-2.3452,-2.3458,-2.3466,-2.3573,-2.3542,-2.3581,-2.3645,-2.368,-2.3693,-2.3704,-2.3741,-2.3755,-2.3589,-2.3589,-2.3589,0,-2.3389,-2.3432,-2.3404,-2.3441,-2.3452,-2.3406,-2.3452,-2.3458,-2.347,-2.3478,-2.3449,-2.3502,-2.3503,-2.3564,-2.359,-2.3599,-2.361,-2.358,-2.3693,-2.3704,-2.3714,-2.3749,-2.3763,-2.3594,-2.3593,-2.3593,-2.3592,0,-2.3505,-2.3536,-2.3573,-2.3585,-2.36,-2.3642,-2.362,-2.3639,-2.3618,-2.3608,-2.3656,-2.3656,-2.3676,-2.369,-2.367,-2.3748,-2.3731,-2.3699,-2.3647,-2.3735,-2.3767,-2.378,-2.3601,-2.3599,-2.3598,-2.3596,0,0,-2.3654,-2.365,-2.3664,-2.3668,-2.367,-2.3693,-2.3734,-2.3753,-2.3769,-2.378,-2.3812,-2.385,-2.382,-2.383,-2.381,-2.3842,-2.3925,-2.3805,-2.3804,-2.3826,-2.4009,-2.4033,-2.4049,-2.3905,-2.3907,-2.3909,-2.4008,0,-2.3754,-2.3821,-2.3797,-2.3866,-2.3893,-2.385,-2.3885,-2.3891,-2.3882,-2.3905,-2.3897,-2.3923,-2.3882,-2.3887,-2.3917,-2.3908,-2.3961,-2.3901,-2.3934,-2.3936,-2.3932,-2.4066,-2.409,-2.4184,-2.4021,-2.4023,-2.4025,0,-2.3879,-2.3893,-2.3965,-2.3961,-2.3972,-2.4004,-2.4019,-2.4042,-2.4048,-2.4039,-2.4051,-2.4024,-2.4064,-2.4013,-2.4067,-2.4027,-2.4039,-2.4037,-2.404,-2.4041,-2.3984,-2.4069,-2.4213,-2.4227,-2.4044,-2.4043,-2.4041,0,-2.3979,-2.4016,-2.4063,-2.4069,-2.4066,-2.4089,-2.409,-2.4092,-2.4105,-2.412,-2.4128,-2.4148,-2.4158,-2.4174,-2.4153,-2.4119,-2.421,-2.4158,-2.4204,-2.4204,-2.4223,-2.4222,-2.4371,-2.4235,-2.4234,-2.4234,-2.4234,0,-2.4092,-2.4137,-2.4108,-2.4137,-2.4186,-2.4158,-2.4208,-2.4204,-2.4206,-2.4234,-2.4199,-2.4226,-2.4198,-2.4222,-2.4207,-2.4253,-2.4259,-2.4253,-2.4248,-2.4255,-2.4256,-2.4262,-2.4254,-2.4238,-2.4237,-2.4236,-2.4236,0,-2.421,-2.4193,-2.4241,-2.4235,-2.4235,-2.4271,-2.4266,-2.4293,-2.4282,-2.4318,-2.4324,-2.4308,-2.4335,-2.4317,-2.4344,-2.4334,-2.4394,-2.4381,-2.4392,-2.4388,-2.4434,-2.4429,-2.459,-2.4609,-2.4463,-2.4464,-2.4466,0,-2.4283,-2.4316,-2.4313,-2.4329,-2.4331,-2.4357,-2.437,-2.4345,-2.436,-2.4369,-2.4395,-2.4418,-2.4436,-2.4481,-2.4472,-2.4493,-2.4479,-2.4534,-2.4481,-2.4487,-2.4478,-2.4475,-2.4478,-2.4544,-2.4545,-2.4547,-2.4548,0,-2.4413,-2.4402,-2.4422,-2.4439,-2.4456,-2.4468,-2.4478,-2.4493,-2.4468,-2.4487,-2.4513,-2.4527,-2.4554,-2.4578,-2.4595,-2.4596,-2.4568,-2.4565,-2.4576,-2.4583,-2.4587,-2.4583,-2.4419,-2.4561,-2.4559,-2.4559,-2.4558,-2.4557,-2.4509,-2.4536,-2.4538,-2.4562,-2.4566,-2.4576,-2.4601,-2.4593,-2.4615,-2.4634,-2.4619,-2.465,-2.4655,-2.4675,-2.468,-2.4704,-2.4682,-2.4699,-2.4703,-2.4707,-2.4712,-2.4585,-2.4708,-2.4707,-2.4707,-2.4707,-2.4706,0,-2.4635,-2.4635,-2.4656,-2.4671,-2.4689,-2.4661,-2.4671,-2.4688,-2.4716,-2.4722,-2.474,-2.4771,-2.4794,-2.4787,-2.4808,-2.4829,-2.4816,-2.4835,-2.4832,-2.4832,-2.4732,-2.4719,-2.4845,-2.4845,-2.4844,-2.4844,-2.4844,-2.4844,-2.4703,-2.4747,-2.4737,-2.4784,-2.4783,-2.4813,-2.4821,-2.483,-2.4834,-2.487,-2.4889,-2.4884,-2.4885,-2.4906,-2.4926,-2.4923,-2.4932,-2.4955,-2.4947,-2.4853,-2.484,-2.4827,-2.4814,-2.4957,-2.4957,-2.5045,-2.5046,-2.5047]},{"header":{"parameterUnit":"m.s-1","parameterCategory":1,"la1":30.2991,"la2":30.254,"lo1":-89.0895,"lo2":-89.0444,"dy":0.0017,"dx":0.0017,"nx":28,"ny":28,"refTime":"2025-12-21T09:00:00:Z","depth":0,"parameterNumber":3,"parameterNumberName":"V-component_of_WINDS"},"data":[0,0,0,0,0,0,0,0,0,0,0,0,0,0,0,0,0,0,0,0,0,0,0,0,0,0,0,0,0,0,0,0,0,0,0,0,0,0,0,0,0,0,0,0,0,0,0,0,0,0,0,0,0,0,0,0,0,0,0.0373,0.0373,0,0.0343,0.0343,0.0343,0.0323,0.0323,0.0322,0.0322,0.0292,0.0291,0.029,0,0,0,0,0,0,0,0,0,0,0,0,0,0.0414,0.0414,0.0373,0.0373,0.0372,0.0343,0.0343,0.0342,0.0323,0.0323,0.0322,0.0322,0.0292,0.0291,0.029,0,0,0,0,0,0,0,0,0,0,0,0,0,0.0392,0.0414,0.0373,0.0359,0.0357,0.0343,0.0343,0.0342,0.0323,0.0323,0.0322,0.0322,0.0292,0.0291,0.029,0.0288,0,0,0.0287,0.0287,0,0,0,0,0,0,0,0,0.0393,0.039,0.0361,0.036,0.0358,0.0336,0.0346,0.0324,0.0323,0.0336,0.0322,0.0322,0.0307,0.0305,0.0299,0.0286,0.0285,0.0287,0.0286,0.0286,0.0286,0,0,0,0,0,0,0,0.0395,0.0391,0.0361,0.0361,0.0359,0.0355,0.0351,0.0342,0.0323,0.0335,0.0333,0.033,0.0306,0.03,0.0299,0.0285,0.0287,0.0286,0.0285,0.0285,0.027,0.027,0,0,0,0,0,0,0.0398,0.0393,0.0362,0.036,0.0375,0.0354,0.035,0.0344,0.0323,0.032,0.033,0.0329,0.0302,0.03,0.0297,0.0294,0.0286,0.0285,0.0284,0.027,0.027,0.027,0,0,0,0,0,0,0.0399,0.0396,0.0363,0.0376,0.0372,0.0354,0.0346,0.0343,0.0338,0.0319,0.0316,0.0328,0.0302,0.0299,0.0291,0.0293,0.0284,0.0284,0.0269,0.027,0.027,0.0287,0,0,0,0,0,0,0.0401,0.0396,0.0395,0.0376,0.0371,0.0357,0.0346,0.0343,0.0336,0.0334,0.0317,0.0313,0.0302,0.0292,0.029,0.0291,0.0283,0.0269,0.0269,0.027,0.0286,0.0288,0.0289,0,0,0,0,0,0.0402,0.04,0.0395,0.0391,0.0369,0.0357,0.0354,0.0341,0.0336,0.0335,0.0323,0.0314,0.0293,0.0292,0.0288,0.029,0.0269,0.0269,0.027,0.0285,0.0287,0.0289,0,0,0,0,0,0,0.0419,0.0398,0.0391,0.0383,0.0372,0.0354,0.0351,0.0343,0.0333,0.0332,0.0316,0.0312,0.0305,0.0297,0.0296,0.0287,0.028,0.028,0.0293,0.0295,0.0296,0.0298,0.0282,0,0,0,0,0,0.0422,0.0414,0.0396,0.0391,0.0385,0.037,0.0364,0.0355,0.0342,0.0338,0.0325,0.0314,0.0305,0.0299,0.029,0.0285,0.0281,0.0284,0.0286,0.0287,0.0287,0.0285,0.0286,0.0272,0.0272,0.0272,0,0,0.0427,0.0415,0.0411,0.0394,0.0384,0.0377,0.0366,0.0358,0.0352,0.0336,0.0328,0.0319,0.0305,0.0299,0.0296,0.0292,0.0291,0.0288,0.0289,0.0288,0.0286,0.0287,0.0288,0.0272,0.0272,0.0272,0,0,0.0434,0.0424,0.0419,0.0409,0.0395,0.0385,0.0384,0.0367,0.0361,0.0352,0.034,0.0334,0.0318,0.031,0.0303,0.0308,0.03,0.0306,0.0314,0.0312,0.0313,0.0314,0.0317,0.0318,0.0306,0.0306,0.0306,0,0.0443,0.0431,0.0417,0.041,0.0404,0.039,0.0385,0.0377,0.036,0.0356,0.0352,0.0333,0.0323,0.0315,0.0317,0.0312,0.0311,0.0308,0.0314,0.0315,0.0316,0.0318,0.0319,0.0307,0.0307,0.0307,0.0307,0,0.0443,0.0435,0.0433,0.0418,0.0411,0.0405,0.0391,0.0386,0.0378,0.0369,0.0361,0.0349,0.0337,0.0334,0.0326,0.0326,0.0324,0.0317,0.0309,0.0318,0.032,0.0321,0.0308,0.0308,0.0308,0.0307,0,0,0.0458,0.0436,0.0436,0.0429,0.0414,0.0407,0.0402,0.0391,0.0387,0.0377,0.0372,0.036,0.0354,0.0347,0.0338,0.0336,0.0342,0.033,0.0329,0.0333,0.0342,0.0347,0.0348,0.0337,0.0337,0.0337,0.0343,0,0.0462,0.0451,0.0439,0.0432,0.0426,0.0413,0.0409,0.0399,0.039,0.0383,0.0374,0.0366,0.0359,0.0354,0.0352,0.0342,0.0344,0.0341,0.0332,0.0332,0.0336,0.0349,0.0354,0.0361,0.0344,0.0344,0.0344,0,0.0465,0.0456,0.0449,0.0435,0.0431,0.0427,0.0417,0.0411,0.04,0.0394,0.0387,0.0377,0.0372,0.0366,0.0358,0.0356,0.0352,0.0347,0.0347,0.0345,0.0338,0.0348,0.0362,0.0363,0.0345,0.0345,0.0345,0,0.0477,0.0463,0.0457,0.0452,0.0436,0.0433,0.0426,0.0415,0.041,0.0401,0.0398,0.0389,0.0383,0.0377,0.0365,0.0362,0.0359,0.0352,0.0354,0.0355,0.0354,0.0354,0.0368,0.0351,0.0351,0.0351,0.0351,0,0.0483,0.0479,0.0463,0.0459,0.0455,0.0442,0.0438,0.043,0.0421,0.0416,0.0405,0.0401,0.0386,0.038,0.0371,0.0367,0.0364,0.036,0.0357,0.0361,0.0361,0.0357,0.0357,0.0352,0.0352,0.0352,0.0352,0,0.0495,0.0484,0.0477,0.0463,0.0459,0.0457,0.0444,0.0441,0.0432,0.0427,0.0424,0.0411,0.0404,0.0392,0.0381,0.0375,0.0373,0.0369,0.0376,0.0375,0.0378,0.0378,0.039,0.0391,0.0374,0.0374,0.0374,0,0.0499,0.0496,0.0482,0.0478,0.0472,0.0466,0.0461,0.0449,0.0444,0.0432,0.043,0.0422,0.0415,0.0404,0.0394,0.0386,0.0382,0.0386,0.038,0.0384,0.0382,0.0382,0.0382,0.0388,0.0388,0.0388,0.0388,0,0.0508,0.0503,0.0496,0.0488,0.0482,0.0475,0.0467,0.0465,0.0451,0.0447,0.0439,0.0434,0.0424,0.0416,0.0407,0.04,0.0392,0.0391,0.0391,0.0394,0.0399,0.0397,0.038,0.039,0.039,0.039,0.039,0.039,0.0517,0.0514,0.0504,0.0497,0.049,0.0484,0.048,0.0472,0.0466,0.0456,0.045,0.0443,0.0434,0.0421,0.0415,0.041,0.0406,0.0406,0.0406,0.0407,0.0408,0.04,0.0408,0.0408,0.0408,0.0408,0.0408,0,0.0525,0.0519,0.0513,0.0503,0.0498,0.0491,0.0483,0.0479,0.0473,0.0466,0.0459,0.0452,0.0445,0.0435,0.0427,0.0425,0.0421,0.0424,0.0423,0.0422,0.0412,0.0412,0.0427,0.0427,0.0427,0.0427,0.0427,0.0427,0.0529,0.0525,0.0519,0.0511,0.0505,0.0498,0.0494,0.0489,0.0482,0.0475,0.0469,0.0463,0.0454,0.0446,0.044,0.0437,0.0435,0.0438,0.0434,0.0425,0.0423,0.0421,0.0422,0.0438,0.0438,0.0445,0.0445,0.0445]}]]